Location: Rochester
(43.1610°N, 77.6109°W)
Time: 04:42:37
(UTC-05:00)

CUTE 1.7 + AOD 2 - Pass Details

Date: 25 October 2021
Orbit: 592 x 610 km, 97.6° (Epoch: 28 November)

Event Time Altitude Azimuth Distance (km) Brightness Sun altitude
Rises 05:44:07 0° 8° (N) 2,884 ? -21.1°
Reaches altitude 10° 05:46:20 10° 4° (N) 1,974 ? -20.7°
Maximum altitude 05:50:32 57° 287° (WNW) 723 ? -20.0°
Enters shadow 05:51:34 44° 237° (WSW) 850 ? -19.8°
